Regional Weather Roundup
Issued by NWS San Angelo, TX

Home | Current Version | Previous Version | Text Only | Print | Product List | Glossary On
Versions: 1 2 3 4 5 6 7 8 9 10 11 12 13 14 15 16 17 18 19 20 21 22 23 24 25 26 27 28 29 30 31 32 33 34 35 36 37 38 39 40 41 42 43 44 45 46 47 48 49 50
000
ASUS44 KSJT 190210
RWRSJT
WEST CENTRAL TEXAS REGIONAL WEATHER ROUNDUP
NATIONAL WEATHER SERVICE SAN ANGELO TX
800 PM CST SUN FEB 18 2018

NOTE: "FAIR" INDICATES FEW OR NO CLOUDS BELOW 12,000 FEET WITH NO
SIGNIFICANT WEATHER AND/OR OBSTRUCTIONS TO VISIBILITY.

TXZ049-054-064>066-071>073-076>078-098-099-113-114-127-128-139-140-
154-155-168>170-190300
...LOCATIONS ACROSS WEST CENTRAL TEXAS...

CITY           SKY/WX    TMP DP  RH WIND       PRES   REMARKS
SAN ANGELO     MOCLDY    66  58  75 S16G22    29.84F
ABILENE        CLOUDY    66  60  81 S18G29    29.82F
DYESS AFB      CLOUDY    67  60  78 S21G29    29.82S
JUNCTION       CLOUDY    67  60  78 SE7       29.88S
SWEETWATER     MOCLDY    67  60  75 S22G31    29.85S
BROWNWOOD      NOT AVBL
COLEMAN        CLOUDY    66  58  76 S10       29.87S
SONORA         CLOUDY    64  61  88 S5        29.92S
OZONA          CLOUDY    63  61  94 S8G20     29.91S
BRADY          NOT AVBL
$$

TEXAS PANHANDLE/OKLAHOMA PANHANDLE

CITY           SKY/WX    TMP DP  RH WIND       PRES   REMARKS
AMARILLO       CLOUDY    61  40  45 SW14      29.70S
BORGER         CLEAR     68  41  37 SW16G28   29.64S
CANADIAN       CLEAR     63  45  51 S10       29.63S
DALHART        PTCLDY    53  32  44 S8        29.63S
DUMAS          CLEAR     63  37  38 SW24G31   29.64R
GUYMON         NOT AVBL
HEREFORD       MOCLDY    63  43  46 SW15      29.73S
PAMPA          CLEAR     64  40  40 SW14      29.67S
PERRYTON       CLEAR     68  37  31 S20       29.60R
$$

SOUTHERN PANHANDLE/SOUTH PLAINS/ROLLING PLAINS

CITY           SKY/WX    TMP DP  RH WIND       PRES   REMARKS
LUBBOCK        MOCLDY    69  41  36 SW15      29.76R
SNYDER         CLOUDY    66  59  77 S20G29    29.82S
CHILDRESS      CLEAR     74  55  51 S23       29.70R
SEMINOLE       MOCLDY    65  54  68 S14       29.83S
$$

PERMIAN BASIN

CITY           SKY/WX    TMP DP  RH WIND       PRES   REMARKS
MIDLAND        CLOUDY    64  58  80 S20       29.84R
ODESSA         CLOUDY    63  58  83 S15G23    29.85R
WINK           PTCLDY    65  58  78 S8        29.81R
$$

FAR WEST/SOUTHWEST MOUNTAINS/TRANS PECOS

CITY           SKY/WX    TMP DP  RH WIND       PRES   REMARKS
ALPINE         PTCLDY    67  44  42 SW7       29.96S
DRYDEN           N/A     64  59  83 NE7       29.84F
EL PASO        CLOUDY    65  41  41 SW14      29.85S
FORT STOCKTON  CLOUDY    68  56  65 S14       29.84R
GUADALUPE PASS CLOUDY    58  40  51 W30       29.90S
MARFA          CLOUDY    61  41  47 SW8       29.93F
PECOS          MOCLDY    66  51  58 NE3       29.79S
$$

DALLAS/FORT WORTH METROPLEX

CITY           SKY/WX    TMP DP  RH WIND       PRES   REMARKS
DFW AIRPORT    CLOUDY    63  61  93 S12       29.89S FOG
FTW MEACHAM    CLOUDY    62  61  96 S17       29.88F FOG
DAL-EXECUTIVE  CLOUDY    62  61  96 S8        29.90S FOG
GRAND PRAIRIE  CLOUDY    61  61 100 S7        29.92R
ADDISON        CLOUDY    61  61 100 S10       29.92S FOG
MESQUITE       CLOUDY    61  59  94 S6        29.92S FOG
LANCASTER      CLOUDY    60  59  96 CALM      29.92S FOG
$$

NORTH CENTRAL TEXAS

CITY           SKY/WX    TMP DP  RH WIND       PRES   REMARKS
SHRMAN/DENISON CLOUDY    59  59  98 S16       29.90R FOG
GAINESVILLE    CLOUDY    60  58  94 S17G23    29.89R
BRIDGEPORT     CLOUDY    63  59  87 S16G22    29.88R
DENTON         CLOUDY    62  60  93 S12       29.88F
WAXAHACHIE     FOG       60  60 100 CALM      29.92S VSB 1/2
GRANBURY       CLOUDY    62  60  90 S8        29.90S
$$

WESTERN NORTH TEXAS

CITY           SKY/WX    TMP DP  RH WIND       PRES   REMARKS
WICHITA FALLS  PTCLDY    63  58  83 S17       29.78R
VERNON         CLEAR     68  55  63 S26G33    29.73R
BRECKENRIDGE   PTCLDY    67  58  73 S16G22    29.84S
COMANCHE       CLOUDY    61  61 100 SE8       29.89F
$$

CENTRAL AND SOUTH CENTRAL TEXAS

CITY           SKY/WX    TMP DP  RH WIND       PRES   REMARKS
AUSTIN/BERGSTM PTCLDY    71  65  81 SE20      29.91S
WACO           MOCLDY    56  55  97 CALM      29.89F FOG
HILLSBORO      FOG       60  60 100 CALM      29.91S VSB 1/4
TEMPLE         MOCLDY    71  63  75 SE22G28   29.89F
KILLEEN-GRAY   CLOUDY    67  63  84 SE18      29.88S
FORT HOOD      CLOUDY    69  62  78 S14       29.86S
GEORGETOWN     PTCLDY    71  62  73 SE16G26   29.92S
LAGO VISTA     FAIR      71  61  71 S12G22    29.93R
SAN MARCOS     PTCLDY    71  62  73 SE22G29   29.93S
NEW BRAUNFELS  PTCLDY    71  60  68 S17       29.92R
RANDOLPH AFB   CLOUDY    71  60  67 SE15      29.92S
SAN ANTONIO    MOCLDY    73  57  57 SE23      29.92S
STINSON        PTCLDY    75  58  55 SE15      29.90R
PLEASANTON     NOT AVBL
LA GRANGE      CLOUDY    71  65  82 S13G21    29.95S
GIDDINGS       MOCLDY    69  62  77 S13G18    29.96S
$$

EAST TEXAS

CITY           SKY/WX    TMP DP  RH WIND       PRES   REMARKS
PARIS          CLOUDY    54  53  97 E10       29.95S FOG
CLARKSVILLE    NOT AVBL
TYLER          CLOUDY    65  63  93 S15       29.93S
LONGVIEW       PTCLDY    61  61 100 SE9       29.95F
PALESTINE      CLOUDY    69  64  83 SE10G17   29.95S
NACOGDOCHES    CLOUDY    67  63  87 SE9       30.00R
$$

TEXAS HILL COUNTRY AND EDWARDS PLATEAU

CITY           SKY/WX    TMP DP  RH WIND       PRES   REMARKS
LLANO          PTCLDY    63  61  94 E3        29.92F
HORSESHOE BAY  FAIR      69  61  77 SE7       29.90S
KERRVILLE      MOCLDY    67  61  80 SE8       29.92S
FREDERICKSBRG  PTCLDY    68  59  73 S9        29.91S
ROCKSPRINGS    MOCLDY    66  61  82 SE10      29.94F
HONDO          PTCLDY    76  62  62 SE17      29.90R
UVALDE         MOCLDY    73  58  59 SE8       29.88S
DEL RIO        MOCLDY    68  63  84 SE6       29.84S
$$

SOUTHEAST TEXAS

CITY           SKY/WX    TMP DP  RH WIND       PRES   REMARKS
COLLEGE STN    PTCLDY    71  63  75 S17       29.96R
CALDWELL       MOCLDY    70  63  78 S20G25    29.96R
CROCKETT       LGT RAIN  70  63  78 S13G21    30.00R
BRENHAM        CLOUDY    73  63  71 S13G20    29.99R
HUNTSVILLE     MOCLDY    71  64  78 SE9G18    29.99R
CONROE         CLOUDY    69  68  96 S14       30.02R
HOUSTON BUSH   MOCLDY    71  66  84 S13       30.03R
HOUSTON HOBBY  MOCLDY    69  69 100 SE10      30.03R
PERLAND        MOCLDY    69  69 100 SE10      30.05S
WHARTON        CLEAR     69  65  88 SE9       30.01S
$$

THE UPPER TEXAS COAST

CITY           SKY/WX    TMP DP  RH WIND       PRES   REMARKS
ORANGE         CLOUDY    69  69 100 S6        30.09S
PORT ARTHUR    CLOUDY    67  65  93 SE7       30.07R FOG
GALVESTON      FOG       67  67 100 SE12      30.05S VSB 1
ANGLETON       MOCLDY    70  67  90 SE9       30.03S
BAY CITY       FAIR      70  68  95 SE10      30.01S
$$

TEXAS COASTAL BEND, RIO GRANDE PLAINS DEEP SOUTH TEXAS

CITY           SKY/WX    TMP DP  RH WIND       PRES   REMARKS
VICTORIA       CLOUDY    69  65  86 SE10      29.99R
BEEVILLE       FAIR      69  66  90 SE15      29.95R
ROCKPORT       CLEAR     68  67  96 SE12      29.98R FOG
PORT ARANSAS   NOT AVBL
PORT LAVACA    CLOUDY    69  66  92 SE12      29.99S
CORPUS CHRISTI PTCLDY    70  68  93 SE18      29.96R
KINGSVILLE NAS PTCLDY    72  67  84 SE14      29.95R
COTULLA        NOT AVBL
LAREDO         CLEAR     77  63  61 SE20G26   29.87S
BROWNSVILLE    FAIR      74  71  91 SE17      29.97R
PORT ISABEL    FAIR      73  68  84 SE17G28   29.96R
HEBBRONVILLE   CLEAR     74  59  59 S15G24    29.93R
MCALLEN        CLEAR     76  69  79 SE21      29.95R
WESLACO        NOT AVBL
FALFURRIAS     CLEAR     76  62  61 SE13      29.93S
EDINBURG       CLEAR     76  66  72 SE17G23   29.95R
$$




USA.gov is the U.S. government's official web portal to all federal, state and local government web resources and services.